Location: ?p Thanh B�nh
(16.5833°N, 107.5333°E)
Time: 10:16:22
(UTC+00:00)

Cosmos 2297 Rocket - Pass Details

Date: 29 October 2020
Orbit: 838 x 845 km, 71.0° (Epoch: 23 November)

Event Time Altitude Azimuth Distance (km) Brightness Sun altitude
Rises 12:36:07 0° 322° (NW) 3,394 5.7 -32.8°
Reaches altitude 10° 12:39:03 10° 308° (NW) 2,457 5.1 -33.5°
Maximum altitude 12:43:20 23° 258° (WSW) 1,733 4.4 -34.5°
Drops below altitude 10° 12:47:37 10° 208° (SSW) 2,451 4.9 -35.6°
Sets 12:50:33 0° 193° (SSW) 3,383 5.5 -36.3°
